Hourly Data Report for August 02, 2021

LONDON CS
ONTARIO
Current Station Operator: ECCC - MSC

43°02'00.000" N
81°09'00.000" W
278.00 m
6144478
71622
WSN

Download Data

Hourly Data (August 2021)
Hourly Data Report for August 2, 2021
TIME
LST
Temp Definition
°C
Dew Point Definition
°C
Rel Hum Definition
%
Precip. Amount Definition
mm

Wind Dir Definition
10's deg

Wind Spd Definition
km/h
Visibility Definition
km
Stn Press Definition
kPa
Hmdx Definition


Wind Chill Definition


Weather Definition


00:00 14.3 12.8 91 0.0       98.45     LegendNANA
01:00 13.8 12.8 93 0.0       98.45     LegendNANA
02:00 13.9 13.0 95 0.0       98.45     LegendNANA
03:00 13.6 12.5 93 0.0       98.47     LegendNANA
04:00 12.3 11.9 97 0.0       98.51     LegendNANA
05:00 11.8 11.4 97 0.0       98.56     LegendNANA
06:00 12.7 12.3 97 0.0       98.61     LegendNANA
07:00 15.3 13.2 87 0.0       98.67     LegendNANA
08:00 17.0 13.7 81 0.0       98.71     LegendNANA
09:00 19.0 12.9 68 0.0       98.76     LegendNANA
10:00 20.1 10.5 54 0.0       98.79     LegendNANA
11:00 21.4 8.2 43 0.0       98.80     LegendNANA
12:00 21.6 7.7 41 0.0       98.77     LegendNANA
13:00 22.8 8.2 39 0.0       98.76     LegendNANA
14:00 22.2 8.4 41 0.0       98.71     LegendNANA
15:00 23.2 11.1 46 0.0       98.69 25   LegendNANA
16:00 23.2 10.4 44 0.0       98.66 25   LegendNANA
17:00 23.0 11.1 47 0.0       98.64 25   LegendNANA
18:00 22.5 9.5 44 0.0       98.64     LegendNANA
19:00 20.9 9.7 49 0.0       98.66     LegendNANA
20:00 16.9 11.3 69 0.0       98.66     LegendNANA
21:00 15.9 10.9 72 0.0       98.67     LegendNANA
22:00 14.4 11.3 82 0.0       98.69     LegendNANA
23:00 13.8 11.3 85 0.0       98.72     LegendNANA

Notes on Data Quality.

Legend

  • E = Estimated
  • M = Missing
  • NA = Not Available*
  • [empty] = Indicates an unobserved value
Date modified: